Tracking 20621 objects as of 30-Mar-2020
HD Live streaming from Space Station
objects crossing your sky now

ARIANE 2 DEB

Track ARIANE 2 DEB now!


NORAD ID: 33548
Int'l Code: 1989-006AQ
Perigee: 1,232.4 km
Apogee: 35,622.5 km
Inclination: 10.3 °
Period: 647.7 minutes
Semi major axis: 24798 km
RCS: 0.2055 m2 (medium)
Launch date: January 27, 1989
Source: France (FR)
Launch site: FRENCH GUIANA (FRGUI)

Note: This is SATELLITE DEBRIS
aabbcc
Your satellite tracking list
Your tracking list is empty




NASA's NSSDC Master Catalog

Two Line Element Set (TLE):
1 33548U 89006AQ  20076.71959562 -.00000010 +00000-0 +00000-0 0  9997
2 33548 010.2824 000.1046 6933923 263.6589 020.1247 02.22313340117417
Source of the keplerian elements: AFSPC